Flag for Germany Weather past 2 weeks in Neumarkt in der Oberpfalz, Bavaria, Germany

Now
46 °F

Overcast.


Feels Like: 41 °F
Forecast: 35 / 53 °F
Wind: 10 mph from Northwest

Location: Hohenfels

Current Time: Oct 23, 2014 at 2:26:09 PM

Latest Report: Oct 23, 2014 at 1:58 PM


Visibility: N/A

Pressure: 30.21 "Hg

Humidity: 82%

Dew point: 41 °F

Location of Neumarkt in der OberpfalzLocation

Historic Weather in Neumarkt in der Oberpfalz — Graph

°F

Neumarkt in der Oberpfalz temperature yesterday

Maximum temperature yesterday: 45 °F (at 12:58 AM)
Minimum temperature yesterday: 41 °F (at 7:58 AM)
Average temperature yesterday: 43 °F

Past Weeks' High & Low Weather Summary

 TemperatureHumidityPressure
High73 °F (Oct 9, 2:58 PM)100% (Oct 9, 3:58 AM)30.30 "Hg (Oct 9, 3:58 AM)
Low41 °F (Oct 22, 7:58 AM)57% (Oct 9, 1:58 PM)29.61 "Hg (Oct 21, 9:04 PM)
Average54 °F91%29.96 "Hg
* Reported Oct 8 12:58 PM — Oct 23 12:58 PM, Neumarkt in der Oberpfalz, Weather by CustomWeather, © 2014

Note: Actual official high and low records may vary slightly from our data, if they occured in-between our weather recording intervals... More about our weather records

Advertising

Neumarkt in der Oberpfalz weather history for previous 24 hours

 ConditionsComfort  
Time TempWeatherWind HumidityBarometerVisibility
12:58 PM
Oct 23
46 °FOvercast.10 mph82%30.20 "HgN/A
11:59 AM46 °FLight rain. Overcast.9 mph82%30.16 "HgN/A
11:58 AM46 °FOvercast.8 mph82%30.19 "HgN/A
10:58 AM45 °FOvercast.8 mph87%30.17 "HgN/A
9:58 AM45 °FOvercast.12 mph87%30.16 "HgN/A
9:04 AM45 °FLow clouds.8 mph87%30.11 "HgN/A
8:58 AM45 °FDrizzle. Low clouds.9 mph87%30.14 "HgN/A
7:58 AM45 °FLow clouds.10 mph87%30.10 "HgN/A
6:58 AM45 °FOvercast.15 mph87%30.06 "HgN/A
6:03 AM45 °FOvercast.12 mph93%30.01 "HgN/A
5:58 AM45 °FLow clouds.13 mph93%30.05 "HgN/A
4:58 AM45 °FLow clouds.12 mph93%30.02 "HgN/A
3:58 AM45 °FLow clouds.10 mph93%30.01 "HgN/A
3:00 AM45 °FLight rain. Low clouds.9 mph93%29.96 "HgN/A
2:58 AM45 °FLow clouds.7 mph93%29.96 "HgN/A
1:58 AM45 °FLight rain. Low clouds.9 mph93%29.97 "HgN/A
12:58 AM45 °FLow clouds.13 mph93%29.95 "HgN/A
12:02 AM45 °FLight rain. Mostly cloudy.13 mph87%29.90 "HgN/A
11:58 PM
Oct 22
45 °FLight rain. Overcast.9 mph87%29.93 "HgN/A
10:58 PM45 °FLight rain. Overcast.14 mph87%29.92 "HgN/A
10:02 PM45 °FLight rain. Mostly cloudy.10 mph87%29.88 "HgN/A
8:58 PM43 °FRain. Mostly cloudy.10 mph87%29.92 "HgN/A
7:58 PM43 °FLight rain. Mostly cloudy.10 mph87%29.91 "HgN/A
6:58 PM41 °FRain. Overcast.13 mph87%29.91 "HgN/A
5:58 PM41 °FHeavy rain. Fog.10 mph87%29.91 "Hg5 mi
4:58 PM43 °FRain. Mostly cloudy.18 mph81%29.90 "HgN/A
3:58 PM43 °FLight rain. Overcast.15 mph81%29.92 "HgN/A
2:58 PM43 °FDrizzle. More clouds than sun.16 mph81%29.91 "HgN/A
Weather by CustomWeather, © 2014

See weather overviewHow to use our weather pages